Regional Weather Roundup
Issued by NWS

Home | Current Version | Previous Version | Graphics & Text | Print | Product List | Glossary On
Versions: 1 2 3 4 5 6 7 8 9 10 11 12 13 14 15 16 17 18 19 20 21 22 23 24 25 26 27 28 29 30 31 32 33 34 35 36 37 38 39 40 41 42 43 44 45 46 47 48 49 50
000
ASUS43 KLMK 010902
RWRKY
KENTUCKY REGIONAL WEATHER ROUNDUP
NATIONAL WEATHER SERVICE LOUISVILLE KY
400 AM EST SUN FEB 01 2015

NOTE "FAIR" INDICATES FEW OR NO CLOUDS BELOW 12,000 FEET
WITH NO SIGNIFICANT WEATHER AND/OR OBSTRUCTIONS TO VISIBILITY.

KYZ001>023-026-027-061>063-070>075-011000-
WESTERN AND SOUTH CENTRAL KENTUCKY

CITY           SKY/WX    TMP DP  RH WIND       PRES   REMARKS
PADUCAH        CLOUDY    45  20  36 S12       29.96F
HENDERSON      CLOUDY    37  25  60 E6        30.01F WCI  33
OWENSBORO      CLOUDY    42  22  45 SE14      30.03F
HOPKINSVILLE   CLOUDY    44  20  39 SE6       30.04F
BOWLING GREEN  CLOUDY    40  20  44 SE5       30.09F
GLASGOW        NOT AVBL
$$

KYZ024-025-028>034-038-045-046-053-011000-
NORTH CENTRAL KENTUCKY

CITY           SKY/WX    TMP DP  RH WIND       PRES   REMARKS
LOUISVILLE/SDF CLOUDY    40  22  48 SE12      30.07F WCI  33
LOUISVILLE/LOU CLOUDY    41  20  43 E9        30.07F
FORT KNOX      CLOUDY    39  19  46 E13       30.03F WCI  31
$$

KYZ035>037-039>044-047>052-055>060-089>105-011000-
NORTHEAST KENTUCKY

CITY           SKY/WX    TMP DP  RH WIND       PRES   REMARKS
LEXINGTON      CLOUDY    35  20  54 VRB3      30.16F
COVINGTON      CLOUDY    34  27  75 E7        30.12F WCI  28
FRANKFORT      MIX PCPN  34  25  69 S6        30.15F WCI  29
$$

KYZ054-064>069-076>088-106>120-011000-
SOUTHEAST KENTUCKY

CITY           SKY/WX    TMP DP  RH WIND       PRES   REMARKS
JACKSON        CLOUDY    36  12  37 CALM      30.16F
LONDON         CLOUDY    37  17  44 CALM      30.16F
SOMERSET       NOT AVBL
MIDDLESBORO    NOT AVBL
MONTICELLO     CLOUDY    42  10  27 SE7       30.16F
$$




USA.gov is the U.S. government's official web portal to all federal, state and local government web resources and services.